Regional Weather Roundup
Issued by NWS

Home | Current Version | Previous Version | Text Only | Print | Product List | Glossary Off
Versions: 1 2 3 4 5 6 7 8 9 10 11 12 13 14 15 16 17 18 19 20 21 22 23 24 25 26 27 28 29 30 31 32 33 34 35 36 37 38 39 40 41 42 43 44 45 46 47 48 49 50

000
ASUS43 KMKX 182310
RWRWI

WISCONSIN REGIONAL WEATHER ROUNDUP
NATIONAL WEATHER SERVICE MILWAUKEE/SULLIVAN WI
500 PM CST MON DEC 18 2017

NOTE: "FAIR" INDICATES FEW OR NO CLOUDS BELOW 12,000 FEET WITH NO
SIGNIFICANT WEATHER AND/OR OBSTRUCTIONS TO VISIBILITY.

WIZ001-002-006>008-014>016-023>028-190000-
NORTHWEST WISCONSIN

CITY           SKY/WX    TMP DP  RH WIND       PRES   REMARKS
SUPERIOR ARPT  LGT SNOW  32  32  97 SW9       29.57S WCI  25
ASHLAND        CLOUDY    34  28  79 SW13      29.58S WCI  25
HAYWARD        CLOUDY    33  27  78 SW8       29.61R WCI  26
SIREN          FLURRIES  34  28  78 SW9       29.62F WCI  27
CUMBERLAND     CLOUDY    32  28  86 SW9       29.64S WCI  24
RICE LAKE      CLOUDY    33  29  86 CALM      29.67R
CHETEK         CLOUDY    33  29  87 SW7       29.66R WCI  26
LADYSMITH      CLOUDY    32  29  88 S9        29.66S WCI  24
EAU CLAIRE     CLOUDY    34  29  82 S8        29.67F WCI  27
MENOMONIE      CLOUDY    35  31  84 S9        29.68S WCI  28
NEW RICHMOND   CLOUDY    35  29  80 S8        29.66S WCI  28
OSCEOLA        CLOUDY    35  29  81 S6        29.67F WCI  30
$$

WIZ003>005-009-010-017-018-190000-
NORTH CENTRAL WISCONSIN

CITY           SKY/WX    TMP DP  RH WIND       PRES   REMARKS
MANITOWISH WTR CLOUDY    30  30 100 SW12      29.60R WCI  21
ARBOR VITAE    CLOUDY    32  31  95 SW8       29.61R WCI  25
WOODRUFF       CLOUDY    32  31  95 SW8       29.61R WCI  25
RHINELANDER    CLOUDY    29  28  96 SW12      29.63F WCI  19
EAGLE RIVER    CLOUDY    30  30 100 SW8       29.58F FOG     WCI  22
LAND O LAKES   CLOUDY    31  29  94 SW5       29.59F FOG     WCI  26
PHILLIPS       CLOUDY    30  29  96 SW9       29.61F WCI  22
TOMAHAWK       CLOUDY    29  27  93 S3        29.65S FOG
MEDFORD        CLOUDY    28  27  98 S8        29.66F WCI  20
MERRILL        CLOUDY    30  29  96 SW6       29.68F FOG     WCI  24
$$

WIZ029-030-035-036-043>047-190000-
CENTRAL WISCONSIN

CITY           SKY/WX    TMP DP  RH WIND       PRES   REMARKS
WAUSAU         CLOUDY    30  27  88 S9        29.69R WCI  22
MOSINEE        MOCLDY    28  28 100 S8        29.71  WCI  20
MARSHFIELD     CLOUDY    29  27  92 SW8       29.69S WCI  21
STEVENS POINT  CLOUDY    27  27  98 SW5       29.73R WCI  22
WAUPACA        CLOUDY    32  27  83 S3        29.75S
WAUTOMA        CLOUDY    32  27  81 S6        29.76S WCI  26
WISC RAPIDS    PTCLDY    30  26  85 S5        29.74S WCI  25
CAMP DOUGLAS   CLOUDY    34  28  77 S6        29.74F WCI  29
$$

WIZ011>013-019>022-031-037>040-048>050-190000-
NORTHEAST WISCONSIN

CITY           SKY/WX    TMP DP  RH WIND       PRES   REMARKS
ANTIGO         CLOUDY    28  28 100 SW7       29.67F FOG     WCI  20
SHAWANO        CLOUDY    33  29  86 SW3       29.73R
OCONTO         CLOUDY    31  28  86 SW7       29.74S WCI  24
STURGEON BAY   CLOUDY    31  28  89 SW8       29.74F WCI  23
GREEN BAY      CLOUDY    32  27  81 SW6       29.75S WCI  26
MANITOWOC      CLOUDY    33  29  85 SW8       29.78S WCI  26
APPLETON       MOCLDY    30  25  80 SW7       29.73F HAZE    WCI  23
CLINTONVILLE   CLOUDY    32  28  86 S6        29.73  FOG     WCI  26
OSHKOSH        CLOUDY    33  28  81 S9        29.76R WCI  25
$$

WIZ032>034-041-042-053>061-190000-
SOUTHWEST WISCONSIN

CITY           SKY/WX    TMP DP  RH WIND       PRES   REMARKS
LA CROSSE      MOCLDY    38  30  73 S12       29.74F WCI  30
SPARTA         CLOUDY    34  30  83 S3        29.75S
VIROQUA        MOCLDY    38  32  79 SW15      29.76R WCI  29
BOSCOBEL       PTCLDY    42  31  64 SW8       29.80R
PRAIRIE DU CHI CLOUDY    42  30  63 SW7       29.80R
PLATTEVILLE    CLEAR     39  35  84 SW13      29.80F WCI  32
$$

WIZ056-057-062-063-064-067-068-190000-
SOUTH CENTRAL WISCONSIN

CITY           SKY/WX    TMP DP  RH WIND       PRES   REMARKS
REEDSBURG      MOCLDY    35  29  79 S7        29.76F WCI  29
BARABOO/DELLS  MOCLDY    35  28  78 SW7       29.77R WCI  29
LONE ROCK      PTCLDY    38  31  76 SW7       29.79R HAZE    WCI  33
MINERAL POINT  CLOUDY    39  36  87 SW9       29.79S WCI  33
MADISON        MOCLDY    37  30  75 S10       29.80R WCI  30
MIDDLETON      CLEAR     38  31  77 SW6       29.80R WCI  33
WATERTOWN      CLEAR     33  32  96 S5        29.79S WCI  28
MONROE         CLEAR     36  32  87 S10       29.80S WCI  28
JANESVILLE     PTCLDY    36  30  80 SW7       29.82S WCI  30
$$

WIZ051-052-058>065-066-070>072-190000-
SOUTHEAST WISCONSIN

CITY           SKY/WX    TMP DP  RH WIND       PRES   REMARKS
MILWAUKEE      PTCLDY    37  32  82 SW5       29.81F WCI  33
WAUKESHA       PTCLDY    34  30  86 SW5       29.81S WCI  30
MILWAUKEE/TIMM CLEAR     34  28  80 SW7       29.81F HAZE    WCI  28
RACINE         CLEAR     38  31  76 SW6       29.84S WCI  33
BURLINGTON     CLEAR     33  28  80 SW5       29.82S WCI  29
KENOSHA        CLEAR     37  28  70 SW7       29.83S WCI  32
FOND DU LAC    PTCLDY    34  28  79 S9        29.77S WCI  27
SHEBOYGAN      PTCLDY    33  30  88 SW8       29.78S WCI  26
WEST BEND      CLEAR     34  32  93 SW6       29.79R WCI  29
JUNEAU         PTCLDY    33  31  90 S7        29.79S WCI  27
$$

LSZ147-162-190000-
LAKE SUPERIOR

STATION/POSITION TIME  TEMP    WIND        PRES    WAVE
                       AIR SEA DIR/SP/G            HT/PER
                 (UTC) (F)     (DEG/KT/KT) (MB)    (FT/S)
DEVILS ISLAND    2300   36     220/ 10/ 12 1001.1F
SAXON HARBOR     2240   36     200/ 13/ 18 1001.0S
$$

LMZ867-665-643>646-190000-
LAKE MICHIGAN

STATION/POSITION TIME  TEMP    WIND        PRES    WAVE
                       AIR SEA DIR/SP/G            HT/PER
                 (UTC) (F)     (DEG/KT/KT) (MB)    (FT/S)
NORTHPORT PIER   2240   32      CALM  /  7 1006.4F
KEWAUNEE LAKESHO 2248   34     230/  4/  9 1007.1F
SHEBOYGAN LAKESH 2300   35     220/  8/  9 1009.2S
PORT WASHINGTON  2240   36     230/  4/  9 1010.2S
MILWAUKEE LAKESH 2250   38     230/  8/  9   N/A
KENOSHA   LAKESH 2300   41     220/  6/  9 1010.5
$$

TC  - TEMPERATURE IN CELSIUS
VSB - VISIBILITY IN STATUTE MILES
WCI - WIND CHILL INDEX
HX  - HEAT INDEX





USA.gov is the U.S. government's official web portal to all federal, state and local government web resources and services.